Regional Weather Roundup
Issued by NWS

Home | Current Version | Previous Version | Graphics & Text | Print | Product List | Glossary On
Versions: 1 2 3 4 5 6 7 8 9 10 11 12 13 14 15 16 17 18 19 20 21 22 23 24 25 26 27 28 29 30 31 32 33 34 35 36 37 38 39 40 41 42 43 44 45 46 47 48 49 50
000
ASUS44 KMEG 180900
RWRTN
TENNESSEE HOURLY STATE WEATHER ROUNDUP
NATIONAL WEATHER SERVICE MEMPHIS TN
300 AM CST THU DEC 18 2014

TNZ002-004-019-021-049-052-054-088>092-181000-
WEST TENNESSEE

CITY           SKY/WX    TMP DP  RH WIND       PRES   REMARKS
MEMPHIS INTL   LGT RAIN  37  34  89 SE6       30.25F FOG     WCI  32
NWS MEMPHIS      N/A     36 N/A N/A MISG        N/A
JACKSON        LGT RAIN  36  33  89 E6        30.25F WCI  31
DYERSBURG      CLOUDY    36  25  64 E3        30.26F
UNION CITY     CLOUDY    32  32 100 CALM      30.25S
PARIS          CLOUDY    30  28  93 E6        30.25F WCI  24
LEXINGTON      CLOUDY    34  34 100 E3        30.24S
SAVANNAH       CLOUDY    37  32  81 CALM      30.26R
$$

TNZ008-025-027-028-033-062-065-066-181000-
NORTH MIDDLE TENNESSEE

CITY           SKY/WX    TMP DP  RH WIND       PRES   REMARKS
NASHVILLE      DRIZZLE   33  30  88 N5        30.28S WCI  29
CLARKSVILLE    FRZ RAIN  32  28  85 E5        30.27F WCI  27
CROSSVILLE     CLOUDY    32  26  78 N5        30.19S WCI  27
$$

TNZ061-075-076-078-094-096-097-181000-
SOUTH MIDDLE TENNESSEE

CITY           SKY/WX    TMP DP  RH WIND       PRES   REMARKS
TULLAHOMA      MOCLDY    34  28  80 N6        30.23R WCI  29
WINCHESTER     CLOUDY    34  30  86 VRB3      30.23R
SHELBYVILLE    CLOUDY    34  30  86 N6        30.26S WCI  29
$$

TNZ017-018-042-046-047-181000-
NORTHEAST TENNESSEE

CITY           SKY/WX    TMP DP  RH WIND       PRES   REMARKS
TRI CITIES     CLEAR     26  24  92 CALM      30.19S
ELIZABETHTON   SUNNY     23  23 100 CALM      30.18S
$$

TNZ012-013-036-069-073-074-181000-
CENTRAL EAST TENNESSEE

CITY           SKY/WX    TMP DP  RH WIND       PRES   REMARKS
KNOXVILLE      CLOUDY    33  29  85 NE3       30.22S
OAK RIDGE      PTCLDY    33  29  85 CALM      30.23S
GATLINBURG     SUNNY     27  27 100 CALM      30.22S
$$

TNZ083-085-099-181000-
SOUTHEAST TENNESSEE

CITY           SKY/WX    TMP DP  RH WIND       PRES   REMARKS
CHATTANOOGA    CLOUDY    37  30  75 N6        30.21F WCI  32
$$

SKY/WX REPORTED AS FAIR MEANS FEW OR NO CLOUDS BELOW
12 THOUSAND FEET.




USA.gov is the U.S. government's official web portal to all federal, state and local government web resources and services.